This is the latest recevied weather packets stored in our database for station/object G4MDP-13. If no packets are shown the sender has not sent any weather packets the latest 10 day(s).
| Time | Temp. | Humidity | Pressure | Rain* | Wind** | Luminosity | Snow |
|---|---|---|---|---|---|---|---|
| 1778248875 | 17.78° C | 46% | 1010.3 hPa | 0 mm | - | - | - |
| 1778248874 | 17.78° C | 46% | 1010.3 hPa | 0 mm | - | - | - |
| 1778247975 | 18.33° C | 47% | 1010.3 hPa | 0 mm | - | - | - |
| 1778247134 | 18.33° C | 48% | 1010.3 hPa | 0 mm | - | - | - |
| 1778247075 | 18.33° C | 48% | 1010.5 hPa | 0 mm | - | - | - |
| 1778247074 | 18.33° C | 48% | 1010.5 hPa | 0 mm | - | - | - |
| 1778246175 | 17.22° C | 53% | 1010.6 hPa | 0 mm | - | - | - |
| 1778245334 | 16.67° C | 55% | 1010.6 hPa | 0 mm | - | - | - |
| 1778245275 | 16.67° C | 55% | 1010.6 hPa | 0 mm | - | - | - |
| 1778245274 | 16.67° C | 55% | 1010.6 hPa | 0 mm | - | - | - |
| 1778244375 | 16.67° C | 54% | 1010.8 hPa | 0 mm | - | - | - |
| 1778243534 | 17.22° C | 53% | 1010.7 hPa | 0 mm | - | - | - |
| 1778243475 | 17.78° C | 53% | 1010.6 hPa | 0 mm | - | - | - |
| 1778243474 | 17.78° C | 53% | 1010.6 hPa | 0 mm | - | - | - |
| 1778242577 | 17.22° C | 54% | 1010.6 hPa | 0 mm | - | - | - |
| 1778242575 | 17.22° C | 54% | 1010.6 hPa | 0 mm | - | - | - |
| 1778241734 | 16.67° C | 56% | 1010.7 hPa | 0 mm | - | - | - |
| 1778241675 | 16.67° C | 57% | 1010.3 hPa | 0 mm | - | - | - |
| 1778241674 | 16.67° C | 57% | 1010.3 hPa | 0 mm | - | - | - |
| 1778240777 | 16.67° C | 59% | 1010.7 hPa | 0 mm | - | - | - |
| 1778240775 | 16.67° C | 59% | 1010.7 hPa | 0 mm | - | - | - |
| 1778239934 | 16.67° C | 58% | 1010.7 hPa | 0 mm | - | - | - |
| 1778239875 | 16.67° C | 58% | 1010.9 hPa | 0 mm | - | - | - |
| 1778239874 | 16.67° C | 58% | 1010.9 hPa | 0 mm | - | - | - |
| 1778238978 | 16.67° C | 59% | 1010.6 hPa | 0 mm | - | - | - |
* Rain latest hour (hover to see other rain measurements)
** Current wind speed in m/s (hover to see current wind gust speed)